Location: Chervonnoye
(48.6000°N, 34.4000°E)
Time: 06:15:04
(UTC+00:00)

Cosmos 2181 Rocket - Pass Details

Date: 23 November 2020
Orbit: 951 x 1015 km, 82.9° (Epoch: 18 January)

Event Time Altitude Azimuth Distance (km) Brightness Sun altitude
Rises 15:44:15 0° 175° (S) 3,740 7.1 -17.7°
Reaches altitude 10° 15:46:48 10° 173° (S) 2,792 6.4 -18.1°
Maximum altitude 15:53:08 63° 94° (E) 1,121 4.0 -19.2°
Drops below altitude 10° 15:59:26 10° 15° (NNE) 2,785 6.2 -20.2°
Sets 16:01:59 0° 12° (NNE) 3,730 6.9 -20.6°
